Change the Weather History Date:

Tuesday, October 16, 2012

  Actual Average Record
Temperature  
Mean Temperature 56 °F 59 °F  
Max Temperature 70 °F 70 °F 89 °F (1947)
Min Temperature 42 °F 49 °F 30 °F (1939)
Degree Days  
Heating Degree Days 9 7  
Month to date heating degree days 126 81  
Since 1 July heating degree days 158 111  
Cooling Degree Days 0 1  
Month to date cooling degree days 7 31  
Year to date cooling degree days 1928 1598  
Growing Degree Days 6 (Base 50)    
Moisture  
Dew Point 43 °F    
Average Humidity 67    
Maximum Humidity 96    
Minimum Humidity 37    
Precipitation  
Precipitation 0.00 in 0.10 in 1.79 in (1925)
Month to date precipitation 1.31 1.68  
Year to date precipitation 36.71 35.95  
Snow  
Snow 0.00 in 0.00 in 0.00 in ()
Month to date snowfall 0.0 0.0  
Since 1 July snowfall 0.0 0.0  
Since 1 September snowfall 0.0 0.0  
Snow Depth 0.00 in    
Sea Level Pressure  
Sea Level Pressure 29.93 in    
Wind  
Wind Speed 6 mph (SSE)    
Max Wind Speed 15 mph    
Max Gust Speed 18 mph    
Visibility 10 miles    
Events      
T = Trace of Precipitation, MM = Missing Value Source: NWS Daily Summary

Daily Weather History Graph

Daily Weather History Graph

Search for Another Location

Airport or City:

Trip Planner

Search our weather history database for the weather conditions in past years. The results will help you decide how hot, cold, wet, or windy it might be!

Date:

Astronomy

Oct. 16, 2012 Rise Set
Actual Time 7:53 AM EDT 7:03 PM EDT
Civil Twilight 7:26 AM EDT 7:29 PM EDT
Nautical Twilight 6:55 AM EDT 8:00 PM EDT
Astronomical Twilight 6:25 AM EDT 8:30 PM EDT
Moon 9:13 AM EDT (10/16) 7:49 PM EDT (10/16)
Length of Visible Light 12h 03m
Length of Day
11h 09m
New Moon, 2% of the Moon is Illuminated
Oct 16
New Moon
Oct 21
First Quarter
Oct 29
Full
Nov 6
Last Quarter
Nov 13
New

Hourly Weather History & Observations

Time (EDT) Temp. Windchill Dew Point Humidity Pressure Visibility Wind Dir Wind Speed Gust Speed Precip Events Conditions
12:56 AM 51.1 °F - 41.0 °F 68% 29.99 in 7.0 mi Calm Calm - N/A   Mostly Cloudy
1:56 AM 48.9 °F - 43.0 °F 80% 29.99 in 10.0 mi Calm Calm - N/A   Partly Cloudy
2:56 AM 48.0 °F - 42.1 °F 80% 30.00 in 10.0 mi Calm Calm - N/A   Scattered Clouds
3:56 AM 46.0 °F - 43.0 °F 89% 29.99 in 10.0 mi Calm Calm - N/A   Partly Cloudy
4:56 AM 46.0 °F - 41.0 °F 83% 29.99 in 10.0 mi Calm Calm - N/A   Clear
5:56 AM 42.8 °F - 41.0 °F 93% 30.00 in 10.0 mi Calm Calm - N/A   Clear
6:56 AM 43.0 °F - 39.9 °F 89% 30.01 in 10.0 mi Calm Calm - N/A   Clear
7:56 AM 42.8 °F 40.1 °F 39.2 °F 87% 30.01 in 9.0 mi SE 4.6 mph - N/A   Clear
8:56 AM 44.1 °F 42.5 °F 41.0 °F 89% 30.01 in 8.0 mi SE 3.5 mph - N/A   Clear
9:56 AM 50.0 °F - 43.0 °F 77% 30.01 in 10.0 mi SE 4.6 mph - N/A   Clear
10:56 AM 57.0 °F - 43.0 °F 59% 30.00 in 10.0 mi South 6.9 mph - N/A   Partly Cloudy
11:56 AM 55.4 °F - 42.8 °F 63% 29.99 in 10.0 mi SSE 8.1 mph - N/A   Partly Cloudy
12:56 PM 64.0 °F - 41.0 °F 43% 29.98 in 10.0 mi South 5.8 mph 16.1 mph N/A   Scattered Clouds
1:56 PM 66.0 °F - 41.0 °F 40% 29.93 in 10.0 mi South 9.2 mph - N/A   Mostly Cloudy
2:56 PM 69.1 °F - 43.0 °F 39% 29.90 in 10.0 mi SE 6.9 mph - N/A   Partly Cloudy
3:56 PM 69.1 °F - 42.1 °F 38% 29.86 in 10.0 mi SSE 9.2 mph - N/A   Mostly Cloudy
4:56 PM 70.0 °F - 43.0 °F 38% 29.83 in 10.0 mi South 11.5 mph - N/A   Mostly Cloudy
5:56 PM 69.1 °F - 44.1 °F 40% 29.82 in 10.0 mi SSE 11.5 mph - N/A   Mostly Cloudy
6:56 PM 66.9 °F - 45.0 °F 45% 29.80 in 10.0 mi South 11.5 mph - N/A   Mostly Cloudy
7:56 PM 63.0 °F - 45.0 °F 52% 29.81 in 10.0 mi SE 8.1 mph - N/A   Scattered Clouds
8:56 PM 61.0 °F - 44.1 °F 54% 29.81 in 10.0 mi SSE 5.8 mph - N/A   Partly Cloudy
9:56 PM 53.1 °F - 44.1 °F 71% 29.82 in 10.0 mi SE 6.9 mph - N/A   Scattered Clouds
10:56 PM 57.9 °F - 44.1 °F 60% 29.81 in 10.0 mi SSE 6.9 mph - N/A   Partly Cloudy
11:56 PM 57.0 °F - 45.0 °F 64% 29.82 in 10.0 mi SE 4.6 mph - N/A   Partly Cloudy